Location: Mahannah Oil Field
(37.4664°N, 96.6003°W)
Time: 15:29:02
(UTC+00:00)

Vanguard 2 Rocket - Pass Details

Date: 22 January 2021
Orbit: 554 x 3325 km, 32.9° (Epoch: 06 March)

Event Time Altitude Azimuth Distance (km) Brightness Sun altitude
Rises 21:36:20 0° 237° (WSW) 6,680 12.8 19.3°
Reaches altitude 10° 21:41:31 10° 233° (SW) 5,290 13.1 18.6°
Maximum altitude 21:54:52 49° 165° (SSE) 2,123 9.3 16.7°
Drops below altitude 10° 22:02:33 10° 92° (E) 3,128 9.3 15.5°
Sets 22:04:50 0° 87° (E) 3,824 9.6 15.2°
